Location: Dentlein
(49.1477°N, 10.4231°E)
Time: 21:57:11
(UTC+00:00)

Cosmos 2098 Rocket - Pass Details

Date: 23 May 2024
Orbit: 360 x 1020 km, 82.9° (Epoch: 14 June)

Event Time Altitude Azimuth Distance (km) Brightness Sun altitude
Rises 02:36:47 0° 342° (NNW) 3,080 7.0 -7.1°
Reaches altitude 10° 02:39:04 10° 334° (NNW) 2,261 6.2 -6.8°
Maximum altitude 02:43:44 36° 269° (W) 1,301 4.4 -6.2°
Drops below altitude 10° 02:49:07 10° 206° (SSW) 2,618 5.7 -5.6°
Enters shadow 02:51:43 - 198° (SSW) 3,554 6.4 -5.3°
